This is the latest recevied weather packets stored in our database for station/object PP5FMM-10. If no packets are shown the sender has not sent any weather packets the latest 10 day(s).
| Time | Temp. | Humidity | Pressure | Rain* | Wind** | Luminosity | Snow |
|---|---|---|---|---|---|---|---|
| 1777827197 | 22.78° C | 47% | 1021.8 hPa | - | - | - | - |
| 1777826301 | 22.78° C | 47% | 1022 hPa | - | - | - | - |
| 1777826297 | 22.78° C | 47% | 1022 hPa | - | - | - | - |
| 1777825401 | 23.33° C | 49% | 1022.1 hPa | - | - | - | - |
| 1777825396 | 23.33° C | 49% | 1022.1 hPa | - | - | - | - |
| 1777824500 | 22.78° C | 47% | 1022.5 hPa | - | - | - | - |
| 1777824496 | 22.78° C | 47% | 1022.5 hPa | - | - | - | - |
| 1777823600 | 23.33° C | 51% | 1022.7 hPa | - | - | - | - |
| 1777823596 | 23.33° C | 51% | 1022.7 hPa | - | - | - | - |
| 1777822700 | 22.78° C | 49% | 1022.9 hPa | - | - | - | - |
| 1777822696 | 22.78° C | 49% | 1022.9 hPa | - | - | - | - |
| 1777821800 | 22.78° C | 53% | 1023.1 hPa | - | - | - | - |
| 1777821796 | 22.78° C | 53% | 1023.1 hPa | - | - | - | - |
| 1777820900 | 22.22° C | 53% | 1023.2 hPa | - | - | - | - |
| 1777820895 | 22.22° C | 53% | 1023.2 hPa | - | - | - | - |
| 1777819999 | 22.22° C | 52% | 1023.4 hPa | - | - | - | - |
| 1777819995 | 22.22° C | 52% | 1023.4 hPa | - | - | - | - |
| 1777819099 | 22.78° C | 57% | 1023.9 hPa | - | - | - | - |
| 1777819095 | 22.78° C | 57% | 1023.9 hPa | - | - | - | - |
| 1777818199 | 22.78° C | 58% | 1024.1 hPa | - | - | - | - |
| 1777818195 | 22.78° C | 58% | 1024.1 hPa | - | - | - | - |
| 1777817299 | 22.78° C | 58% | 1024.1 hPa | - | - | - | - |
| 1777817295 | 22.78° C | 58% | 1024.1 hPa | - | - | - | - |
| 1777816399 | 22.78° C | 58% | 1024.3 hPa | - | - | - | - |
| 1777816395 | 22.78° C | 58% | 1024.3 hPa | - | - | - | - |
* Rain since midnight (hover to see other rain measurements)
** Current wind speed in m/s (hover to see current wind gust speed)